Sansumifuku — JD2579 — position and weather

sailwx.info

Track history (hours):
 
Tides and Currents Weather Stations Pressure Air Temp Water Temp Dewpoint Dewpoint Depression Visibility Wind Speed Wind Dir Waves Ship Positions

Sansumifuku

Last reported at 2014-Aug-21 09:29 UTC. Time now 2014-Aug-21 12:11 UTC.
Position N 34°37' E 134°54'.

Length 75 m; draft 4.3 m.

Type: Cargo ship. MMSI: 431000426.

Date/timePositionNaut miles runAvg speedWind from/ knotsBaromVisibWave heightAir tempDewpointWater temp
2014-Aug-21 09:29N 34°37' E 134°54'1314.3
2014-Aug-21 08:33N 34°36' E 135°10'1212.2
2014-Aug-21 07:33N 34°36' E 135°25'2 1.8
2014-Aug-21 06:30N 34°34' E 135°27'0 0.0
2014-Aug-21 05:24N 34°34' E 135°27'0 0.0
2014-Aug-21 04:21N 34°34' E 135°27'0 0.0
2014-Aug-21 03:33N 34°34' E 135°27'0 0.0
2014-Aug-21 02:27N 34°34' E 135°27'0 0.0
2014-Aug-21 01:32N 34°34' E 135°27'0 0.0
2014-Aug-21 00:26N 34°34' E 135°27'0 0.1
2014-Aug-20 23:20N 34°35' E 135°27'0 0.0
2014-Aug-20 20:26N 34°35' E 135°27'0 0.0
2014-Aug-20 19:08N 34°35' E 135°27'0 0.1
2014-Aug-20 18:26N 34°35' E 135°27'0 0.0
2014-Aug-20 17:08N 34°35' E 135°27'0 0.0
2014-Aug-20 16:20N 34°35' E 135°27'0 0.0
2014-Aug-20 13:20N 34°35' E 135°27'0 0.1
2014-Aug-20 12:14N 34°35' E 135°27'0 0.0
2014-Aug-20 10:32N 34°35' E 135°27'1 1.2
2014-Aug-20 09:33N 34°35' E 135°26'0 0.1
2014-Aug-20 08:12N 34°35' E 135°26'0 0.0
2014-Aug-20 07:30N 34°35' E 135°26'0 0.0
2014-Aug-20 06:06N 34°35' E 135°26'0 0.0
2014-Aug-20 05:24N 34°35' E 135°26'0 0.0
2014-Aug-20 04:06N 34°35' E 135°26'0 0.0
2014-Aug-20 03:24N 34°35' E 135°26'0 0.0
2014-Aug-20 02:18N 34°35' E 135°26'0 0.0
2014-Aug-20 01:30N 34°35' E 135°26'0 0.0
2014-Aug-20 00:24N 34°35' E 135°26'0 0.0
2014-Aug-19 23:30N 34°35' E 135°26'0 0.0
2014-Aug-19 22:30N 34°35' E 135°26'0 0.0
2014-Aug-19 21:30N 34°35' E 135°26'0 0.0
2014-Aug-19 20:30N 34°35' E 135°26'0 0.0
2014-Aug-19 19:24N 34°35' E 135°26'0 0.0
2014-Aug-19 18:30N 34°35' E 135°26'0 0.0
2014-Aug-19 17:30N 34°35' E 135°26'0 0.0
2014-Aug-19 16:24N 34°35' E 135°26'0 0.0
2014-Aug-19 15:12N 34°35' E 135°26'0 0.0
2014-Aug-19 14:30N 34°35' E 135°26'0 0.0
2014-Aug-19 13:24N 34°35' E 135°26'0 0.0
2014-Aug-19 12:24N 34°35' E 135°26'0 0.0
2014-Aug-19 11:24N 34°35' E 135°26'0 0.0
2014-Aug-19 10:30N 34°35' E 135°26'0 0.0
2014-Aug-19 09:30N 34°35' E 135°26'0 0.0
2014-Aug-19 08:30N 34°35' E 135°26'0 0.0
2014-Aug-19 07:30N 34°35' E 135°26'0 0.1
2014-Aug-19 06:33N 34°35' E 135°26'8 7.5
2014-Aug-19 05:33N 34°32' E 135°17'1512.4
2014-Aug-19 04:22N 34°21' E 135°05'226 8.7
2014-Aug-18 02:29N 34°51' E 139°37'2210.6
2014-Aug-18 00:24N 34°56' E 140°03'68 9.9
2014-Aug-17 17:32N 35°55' E 140°46'5 0.8
2014-Aug-17 11:09N 35°56' E 140°40'0 0.0
2014-Aug-17 10:30N 35°56' E 140°40'0 0.0
2014-Aug-17 09:33N 35°56' E 140°40'0 0.0
2014-Aug-17 08:27N 35°56' E 140°40'0 0.0
2014-Aug-17 05:30N 35°56' E 140°40'0 0.0
2014-Aug-17 04:33N 35°56' E 140°40'0 0.0
2014-Aug-17 01:21N 35°56' E 140°40'0 0.0
2014-Aug-16 19:33N 35°56' E 140°40'0 0.0
2014-Aug-16 16:30N 35°56' E 140°40'0 0.0
2014-Aug-15 05:24N 35°55' E 140°40'0 0.0
2014-Aug-15 03:24N 35°55' E 140°40'0 0.0
2014-Aug-15 01:24N 35°55' E 140°40'0 0.0
2014-Aug-14 23:30N 35°55' E 140°40'0 0.0
2014-Aug-14 22:18N 35°55' E 140°40'0 0.0
2014-Aug-14 21:12N 35°55' E 140°40'0 0.0
2014-Aug-14 20:24N 35°55' E 140°40'0 0.0
2014-Aug-14 19:30N 35°55' E 140°40'0 0.0
2014-Aug-14 18:24N 35°55' E 140°40'0 0.0
2014-Aug-14 17:30N 35°55' E 140°40'0 0.0
2014-Aug-14 16:24N 35°55' E 140°40'0 0.0
2014-Aug-14 15:30N 35°55' E 140°40'0 0.0
2014-Aug-14 14:24N 35°55' E 140°40'0 0.0
2014-Aug-14 13:27N 35°55' E 140°40'0 0.0
2014-Aug-14 12:33N 35°55' E 140°40'0 0.0
2014-Aug-14 11:30N 35°55' E 140°40'0 0.0
2014-Aug-14 10:30N 35°55' E 140°40'0 0.0
2014-Aug-14 09:33N 35°55' E 140°40'0 0.0
2014-Aug-14 08:33N 35°55' E 140°40'0 0.0
2014-Aug-14 07:24N 35°55' E 140°40'0 0.2
2014-Aug-14 04:27N 35°55' E 140°41'40 4.9
2014-Aug-13 20:21N 35°16' E 140°32'2713.5
2014-Aug-13 18:20N 34°58' E 140°07'2411.9
2014-Aug-13 16:22N 34°51' E 139°39'11 0.3
2014-Aug-11 21:32N 34°58' E 139°29'1111.0
2014-Aug-11 20:34N 35°05' E 139°40'1010.3
2014-Aug-11 19:34N 35°14' E 139°46'1010.1
2014-Aug-11 18:33N 35°23' E 139°42'1111.2
2014-Aug-11 17:34N 35°31' E 139°52'5 4.6
2014-Aug-11 16:30N 35°35' E 139°55'0 0.0
2014-Aug-11 15:33N 35°35' E 139°55'0 0.0
2014-Aug-11 14:33N 35°35' E 139°55'0 0.0
2014-Aug-11 13:33N 35°35' E 139°55'0 0.0
2014-Aug-11 12:33N 35°35' E 139°55'0 0.0
2014-Aug-11 11:33N 35°35' E 139°55'0 0.0
2014-Aug-11 10:33N 35°35' E 139°55'0 0.0
2014-Aug-11 09:34N 35°35' E 139°55'  
Track history (hours):
 
Tides and Currents Weather Stations Pressure Air Temp Water Temp Dewpoint Dewpoint Depression Visibility Wind Speed Wind Dir Waves Ship Positions

Sansumifuku

Last reported at 2014-Aug-21 09:29 UTC. Time now 2014-Aug-21 12:11 UTC.
Position N 34°37' E 134°54'.

Length 75 m; draft 4.3 m.

Type: Cargo ship. MMSI: 431000426.

Date/timePositionNaut miles runAvg speedWind from/ knotsBaromVisibWave heightAir tempDewpointWater temp
2014-Aug-21 09:29N 34°37' E 134°54'1314.3
2014-Aug-21 08:33N 34°36' E 135°10'1212.2
2014-Aug-21 07:33N 34°36' E 135°25'2 1.8
2014-Aug-21 06:30N 34°34' E 135°27'0 0.0
2014-Aug-21 05:24N 34°34' E 135°27'0 0.0
2014-Aug-21 04:21N 34°34' E 135°27'0 0.0
2014-Aug-21 03:33N 34°34' E 135°27'0 0.0
2014-Aug-21 02:27N 34°34' E 135°27'0 0.0
2014-Aug-21 01:32N 34°34' E 135°27'0 0.0
2014-Aug-21 00:26N 34°34' E 135°27'0 0.1
2014-Aug-20 23:20N 34°35' E 135°27'0 0.0
2014-Aug-20 20:26N 34°35' E 135°27'0 0.0
2014-Aug-20 19:08N 34°35' E 135°27'0 0.1
2014-Aug-20 18:26N 34°35' E 135°27'0 0.0
2014-Aug-20 17:08N 34°35' E 135°27'0 0.0
2014-Aug-20 16:20N 34°35' E 135°27'0 0.0
2014-Aug-20 13:20N 34°35' E 135°27'0 0.1
2014-Aug-20 12:14N 34°35' E 135°27'0 0.0
2014-Aug-20 10:32N 34°35' E 135°27'1 1.2
2014-Aug-20 09:33N 34°35' E 135°26'0 0.1
2014-Aug-20 08:12N 34°35' E 135°26'0 0.0
2014-Aug-20 07:30N 34°35' E 135°26'0 0.0
2014-Aug-20 06:06N 34°35' E 135°26'0 0.0
2014-Aug-20 05:24N 34°35' E 135°26'0 0.0
2014-Aug-20 04:06N 34°35' E 135°26'0 0.0
2014-Aug-20 03:24N 34°35' E 135°26'0 0.0
2014-Aug-20 02:18N 34°35' E 135°26'0 0.0
2014-Aug-20 01:30N 34°35' E 135°26'0 0.0
2014-Aug-20 00:24N 34°35' E 135°26'0 0.0
2014-Aug-19 23:30N 34°35' E 135°26'0 0.0
2014-Aug-19 22:30N 34°35' E 135°26'0 0.0
2014-Aug-19 21:30N 34°35' E 135°26'0 0.0
2014-Aug-19 20:30N 34°35' E 135°26'0 0.0
2014-Aug-19 19:24N 34°35' E 135°26'0 0.0
2014-Aug-19 18:30N 34°35' E 135°26'0 0.0
2014-Aug-19 17:30N 34°35' E 135°26'0 0.0
2014-Aug-19 16:24N 34°35' E 135°26'0 0.0
2014-Aug-19 15:12N 34°35' E 135°26'0 0.0
2014-Aug-19 14:30N 34°35' E 135°26'0 0.0
2014-Aug-19 13:24N 34°35' E 135°26'0 0.0
2014-Aug-19 12:24N 34°35' E 135°26'0 0.0
2014-Aug-19 11:24N 34°35' E 135°26'0 0.0
2014-Aug-19 10:30N 34°35' E 135°26'0 0.0
2014-Aug-19 09:30N 34°35' E 135°26'0 0.0
2014-Aug-19 08:30N 34°35' E 135°26'0 0.0
2014-Aug-19 07:30N 34°35' E 135°26'0 0.1
2014-Aug-19 06:33N 34°35' E 135°26'8 7.5
2014-Aug-19 05:33N 34°32' E 135°17'1512.4
2014-Aug-19 04:22N 34°21' E 135°05'226 8.7
2014-Aug-18 02:29N 34°51' E 139°37'2210.6
2014-Aug-18 00:24N 34°56' E 140°03'68 9.9
2014-Aug-17 17:32N 35°55' E 140°46'5 0.8
2014-Aug-17 11:09N 35°56' E 140°40'0 0.0
2014-Aug-17 10:30N 35°56' E 140°40'0 0.0
2014-Aug-17 09:33N 35°56' E 140°40'0 0.0
2014-Aug-17 08:27N 35°56' E 140°40'0 0.0
2014-Aug-17 05:30N 35°56' E 140°40'0 0.0
2014-Aug-17 04:33N 35°56' E 140°40'0 0.0
2014-Aug-17 01:21N 35°56' E 140°40'0 0.0
2014-Aug-16 19:33N 35°56' E 140°40'0 0.0
2014-Aug-16 16:30N 35°56' E 140°40'0 0.0
2014-Aug-15 05:24N 35°55' E 140°40'0 0.0
2014-Aug-15 03:24N 35°55' E 140°40'0 0.0
2014-Aug-15 01:24N 35°55' E 140°40'0 0.0
2014-Aug-14 23:30N 35°55' E 140°40'0 0.0
2014-Aug-14 22:18N 35°55' E 140°40'0 0.0
2014-Aug-14 21:12N 35°55' E 140°40'0 0.0
2014-Aug-14 20:24N 35°55' E 140°40'0 0.0
2014-Aug-14 19:30N 35°55' E 140°40'0 0.0
2014-Aug-14 18:24N 35°55' E 140°40'0 0.0
2014-Aug-14 17:30N 35°55' E 140°40'0 0.0
2014-Aug-14 16:24N 35°55' E 140°40'0 0.0
2014-Aug-14 15:30N 35°55' E 140°40'0 0.0
2014-Aug-14 14:24N 35°55' E 140°40'0 0.0
2014-Aug-14 13:27N 35°55' E 140°40'0 0.0
2014-Aug-14 12:33N 35°55' E 140°40'0 0.0
2014-Aug-14 11:30N 35°55' E 140°40'0 0.0
2014-Aug-14 10:30N 35°55' E 140°40'0 0.0
2014-Aug-14 09:33N 35°55' E 140°40'0 0.0
2014-Aug-14 08:33N 35°55' E 140°40'0 0.0
2014-Aug-14 07:24N 35°55' E 140°40'0 0.2
2014-Aug-14 04:27N 35°55' E 140°41'40 4.9
2014-Aug-13 20:21N 35°16' E 140°32'2713.5
2014-Aug-13 18:20N 34°58' E 140°07'2411.9
2014-Aug-13 16:22N 34°51' E 139°39'11 0.3
2014-Aug-11 21:32N 34°58' E 139°29'1111.0
2014-Aug-11 20:34N 35°05' E 139°40'1010.3
2014-Aug-11 19:34N 35°14' E 139°46'1010.1
2014-Aug-11 18:33N 35°23' E 139°42'1111.2
2014-Aug-11 17:34N 35°31' E 139°52'5 4.6
2014-Aug-11 16:30N 35°35' E 139°55'0 0.0
2014-Aug-11 15:33N 35°35' E 139°55'0 0.0
2014-Aug-11 14:33N 35°35' E 139°55'0 0.0
2014-Aug-11 13:33N 35°35' E 139°55'0 0.0
2014-Aug-11 12:33N 35°35' E 139°55'0 0.0
2014-Aug-11 11:33N 35°35' E 139°55'0 0.0
2014-Aug-11 10:33N 35°35' E 139°55'0 0.0
2014-Aug-11 09:34N 35°35' E 139°55'  

Dump ship's entire track history